Location: Los Gatos B&B
(42.6926°N, 77.0646°W)
Time: 06:50:06
(UTC-04:00)

Cosmos 2263 Rocket - Visible Passes

Search period start: 24 July 2017 00:00
Search period end: 03 August 2017 00:00
Orbit: 823 x 849 km, 71.0° (Epoch: 23 July)

Date Brightness Start Highest point End Pass type
(mag) Time Alt. Az. Time Alt. Az. Time Alt. Az.
24 Jul 4.1 01:51:01 10° N 01:55:44 26° NE 02:00:25 10° ESE visible
24 Jul 2.3 03:34:26 10° NNW 03:39:58 53° WSW 03:42:29 30° SSW visible
25 Jul 4.1 01:34:22 10° N 01:38:57 24° NE 01:43:23 10° ESE visible
25 Jul 2.2 03:17:41 10° NNW 03:23:15 58° WSW 03:24:59 41° SSW visible
26 Jul 4.2 01:17:44 10° N 01:22:09 23° NE 01:26:03 12° E visible
26 Jul 2.2 03:00:55 10° NNW 03:06:33 63° WSW 03:07:40 52° SSW visible
27 Jul 4.3 01:01:07 10° N 01:05:23 21° NE 01:08:52 13° E visible
27 Jul 2.1 02:44:11 10° NNW 02:49:51 68° WSW 02:50:30 62° SSW visible
28 Jul 4.3 00:44:29 10° N 00:48:35 20° NE 00:51:48 13° E visible
28 Jul 2.0 02:27:26 10° NNW 02:33:08 74° WSW 02:33:26 72° SW visible
29 Jul 4.4 00:27:53 10° N 00:31:48 19° NE 00:34:48 13° E visible
29 Jul 2.0 02:10:43 10° NNW 02:16:25 80° WSW 02:16:28 80° WSW visible
30 Jul 4.4 00:11:17 10° N 00:15:00 17° NE 00:17:55 12° E visible
30 Jul 2.1 01:53:58 10° NNW 01:59:34 84° WNW 01:59:34 84° WNW visible
30 Jul 4.3 03:40:50 10° WNW 03:41:13 11° W 03:41:13 11° W visible
30 Jul 4.4 23:54:42 10° N 23:58:12 16° NE 00:01:04 12° ENE visible
31 Jul 2.2 01:37:15 10° NNW 01:42:43 82° N 01:42:43 82° N visible
31 Jul 4.3 03:23:37 10° WNW 03:24:23 11° WNW 03:24:23 11° WNW visible
31 Jul 4.5 23:38:09 10° N 23:41:23 15° NE 23:44:17 11° ENE visible
01 Aug 2.2 01:20:31 10° NNW 01:25:56 77° NNE 01:25:56 77° NNE visible
01 Aug 4.3 03:06:31 10° WNW 03:07:36 12° WNW 03:07:36 12° WNW visible
01 Aug 4.5 23:21:36 10° NNE 23:24:35 14° NE 23:27:32 10° ENE visible
02 Aug 2.3 01:03:48 10° NNW 01:09:12 73° NNE 01:09:12 73° NNE visible
02 Aug 4.3 02:49:29 10° WNW 02:50:52 14° WNW 02:50:52 14° WNW visible
02 Aug 4.5 23:05:05 10° NNE 23:07:46 13° NE 23:10:26 10° ENE visible
